Home > Weather > Río Grande > Past weeks

Flag for Argentina Past Weather in Río Grande, Tierra del Fuego, Argentina — Yesterday and Last 2 Weeks

Now
43 °F

Passing clouds.


Feels Like: 33 °F
Forecast: 35 / 43 °F
Wind: 26 mph from West

Location: Rio Grande B. A.

Current Time: Jun 30, 2016 at 4:33:06 PM

Latest Report: Jun 30, 2016 at 3:00 PM


Visibility: N/A

Pressure: 29.59 "Hg

Humidity: 76%

Dew Point: 36 °F

Location of Río GrandeLocation

Past Weather in Río Grande — Graph

°F

Río Grande Temperature Yesterday

Maximum temperature yesterday: 41 °F (at 3:00 PM)
Minimum temperature yesterday: 30 °F (at 11:00 PM)
Average temperature yesterday: 36 °F

High & Low Weather Summary for the Past Weeks

 TemperatureHumidityPressure
High57 °F (Jun 27, 8:00 AM)100% (Jun 16, 7:00 PM)30.12 "Hg (Jun 16, 7:00 PM)
Low30 °F (Jun 19, 9:00 PM)66% (Jun 27, 4:00 PM)29.18 "Hg (Jun 29, 6:00 AM)
Average40 °F92%29.72 "Hg
* Reported Jun 15 3:00 PM — Jun 30 3:00 PM, Río Grande, Weather by CustomWeather, © 2016

Note: Actual official high and low records may vary slightly from our data, if they occured in-between our weather recording intervals... More about our weather records

Advertising

Río Grande Weather History for the Previous 24 Hours

Scroll right to see more
 ConditionsComfort  
Time TempWeatherWind HumidityBarometerVisibility
3:00 PM
Thu, Jun 30
43 °FPassing clouds.26 mph76%29.59 "HgN/A
2:00 PM41 °FSunny.24 mph70%29.62 "Hg10 mi
1:00 PM39 °FSunny.21 mph87%29.62 "Hg10 mi
12:00 PM37 °FPassing clouds.22 mph87%29.65 "HgN/A
11:00 AM36 °FPassing clouds.23 mph87%29.65 "HgN/A
10:00 AM36 °FSunny.21 mph87%29.62 "Hg10 mi
9:00 AM34 °FSunny.20 mph93%29.62 "Hg10 mi
8:00 AM34 °FClear.18 mph87%29.59 "Hg10 mi
7:00 AM34 °FClear.21 mph93%29.59 "Hg10 mi
6:00 AM34 °FClear.18 mph93%29.56 "Hg10 mi
5:00 AM32 °FClear.22 mph100%29.56 "Hg10 mi
4:00 AM32 °FClear.17 mph100%29.53 "Hg10 mi
3:00 AM32 °FClear.13 mph100%29.50 "Hg10 mi
1:00 AM32 °FClear.15 mph100%29.42 "Hg10 mi
11:00 PM
Wed, Jun 29
30 °FClear.10 mph100%29.36 "Hg10 mi
10:00 PM32 °FClear.3 mph93%29.33 "Hg10 mi
9:00 PM32 °FClear.12 mph93%29.27 "Hg10 mi
8:00 PM34 °FClear.16 mph93%29.30 "Hg10 mi
6:00 PM36 °FPassing clouds.12 mph87%29.27 "HgN/A
5:00 PM37 °FPassing clouds.16 mph81%29.27 "HgN/A
4:00 PM39 °FScattered clouds.16 mph81%29.27 "HgN/A
Weather by CustomWeather, © 2016

See weather overviewHow to use our weather pages